Regional Weather Roundup
Issued by NWS

Home | Current Version | Previous Version | Text Only | Print | Product List | Glossary Off
Versions: 1 2 3 4 5 6 7 8 9 10 11 12 13 14 15 16 17 18 19 20 21 22 23 24 25 26 27 28 29 30 31 32 33 34 35 36 37 38 39 40 41 42 43 44 45 46 47 48 49 50

000
ASUS43 KDTX 301010
RWRMI
MICHIGAN HOURLY REGIONAL WEATHER ROUNDUP
NATIONAL WEATHER SERVICE DETROIT/PONTIAC MI
600 AM EDT SAT JUL 30 2016

NOTE: "FAIR" INDICATES FEW OR NO CLOUDS BELOW 12,000 FEET WITH NO
SIGNIFICANT WEATHER AND/OR OBSTRUCTION TO VISIBILITY.

MIZ047>049-052>055-059>063-066>070-074>076-081>083-301100-
SOUTHEAST LOWER MICHIGAN

CITY           SKY/WX    TMP DP  RH WIND       PRES   REMARKS
ADRIAN         MOCLDY    65  62  90 NE5       29.95S
ALMA           CLOUDY    63  62  97 CALM      30.02R
ANN ARBOR      CLOUDY    67  62  84 N7        29.95R
BAD AXE        CLOUDY    64  61  90 NE5       30.01R
CARO           HVY RAIN  64  62  94 NE6       29.99R
DETROIT CITY   CLOUDY    68  65  90 N5        29.94S
DETROIT        CLOUDY    68  63  84 N6        29.94S
FLINT          MOCLDY    70  59  68 NE9       29.98R
GROSSE ILE     CLOUDY    70  66  87 N6        29.92S
HILLSDALE      CLOUDY    64  61  90 N3        29.96R
HOWELL         MOCLDY    65  61  87 CALM      29.97R

CITY           SKY/WX    TMP DP  RH WIND       PRES   REMARKS
JACKSON        CLOUDY    63  61  93 N5        29.97R
LAMBERTVILLE   CLOUDY    67  62  85 CALM      29.93S
LANSING        CLOUDY    63  59  87 N10       29.99S
LAPEER         FAIR      66  60  79 N3        29.98R
MASON          CLOUDY    64  58  81 NW7       29.98R
MONROE         CLOUDY    67  65  93 N3        29.92S
MT. CLEMENS    CLOUDY    69  63  82 NE10      29.93S HAZE
PONTIAC        CLOUDY    67  62  84 NE7       29.96R
PORT HOPE        N/A     70  60  70 E17       30.00S
PORT HURON     CLOUDY    66  61  82 NE8       29.97S
TRI CITIES     CLOUDY    69  60  73 NE10      30.00S
MIDLAND        CLOUDY    64  58  80 CALM      30.00R
TROY           CLOUDY    70  62  78 NE7       29.97R
SAGINAW HB     CLOUDY    64  59  82 NE3       29.99R
$$
MIZ043>046-050>051-056>058-064>065-071>073-077>080-301100-
SOUTHWEST LOWER MICHIGAN

CITY           SKY/WX    TMP DP  RH WIND       PRES   REMARKS
BATTLE CREEK   CLOUDY    62  61  96 NE7       29.97S
BENTON HARBOR  CLOUDY    67  59  75 NE7       29.94R
BIG RAPIDS     CLOUDY    58  57  96 CALM      30.03R
COLDWATER      CLOUDY    64  62  94 NE6       29.96R
FREMONT        FAIR      63  59  89 E5        30.01R
HOLLAND        LGT RAIN  62  60  93 NE5       29.99S
GRAND RAPIDS   LGT RAIN  62  60  93 NE8       29.99S
IONIA          LGT RAIN  61  59  94 NE10      29.98F
KALAMAZOO      CLOUDY    64  59  83 NE6       29.97S
LUDINGTON      PTCLDY    62  56  81 E3        30.01R
MARSHALL       CLOUDY    65  59  80 CALM      29.96S
MOUNT PLEASANT CLOUDY    62  56  82 N5        30.01R
MUSKEGON       LGT RAIN  64  61  90 NE6       30.00F
SOUTH HAVEN    CLOUDY    65  60  84 E9        29.96R
$$
MIZ016>042-301100-
NORTHERN LOWER MICHIGAN

CITY           SKY/WX    TMP DP  RH WIND       PRES   REMARKS
ALPENA         CLOUDY    53  50  89 CALM      30.08R
BEAVER ISLAND  CLEAR     54  54 100 CALM      30.08S
BELLAIRE       CLEAR     50  49  95 CALM      30.06S
CADILLAC       CLOUDY    59  53  81 E5        30.05R
CHARLEVOIX     CLEAR     56  53  89 CALM      30.09F
FRANKFORT      PTCLDY    62  51  68 NE7       30.04R
GAYLORD        CLEAR     59  49  69 NE8       30.08S
GRAYLING       FOG       45  45  99 CALM      30.08R VSB 1/4
HARBOR SPRINGS PTCLDY    55  53  93 N5        30.08S
HOUGHTON LAKE  CLEAR     54  51  90 NE9       30.06S
MANISTEE       MOCLDY    61  54  77 E7        30.01S
OSCODA         CLOUDY    67  60  79 NE12G17   30.04R
PELLSTON       PTCLDY    48  46  93 CALM      30.09S
ROGERS CITY    PTCLDY    51  48  90 CALM      30.09R
TRAVERSE CITY  PTCLDY    54  51  90 CALM      30.04S
$$
MIZ007>008-015-301100-
EASTERN UPPER MICHIGAN

CITY           SKY/WX    TMP DP  RH WIND       PRES   REMARKS
KINROSS        CLEAR     54  53  97 CALM      30.09S
MACKINAC ISLAN CLEAR     57  57 100 CALM      30.08S
NEWBERRY       CLEAR     50  48  93 W3        30.09R
S. S. MARIE    CLEAR     57  54  89 E5        30.09R
MUNISING         N/A     51  49  92 SW5       30.07S
$$
MIZ004>006-011>014-085-301100-
CENTRAL UPPER MICHIGAN

CITY           SKY/WX    TMP DP  RH WIND       PRES   REMARKS
MANISTIQUE     PTCLDY    51  51  97 N5        30.08S
ESCANABA       PTCLDY    52  48  87 CALM      30.06S
MENOMINEE      PTCLDY   N/A N/A N/A N5          N/A
SAWYER-GWINN   CLEAR     50  48  93 CALM      30.10R
$$
MIZ001>003-009>011-084-301100-
WESTERN UPPER MICHIGAN

CITY           SKY/WX    TMP DP  RH WIND       PRES   REMARKS
IRON MOUNTAIN  CLEAR     53  50  89 NW6       30.08S
HOUGHTON       CLEAR     57  55  93 E6        30.08R
COPPER HARBOR    N/A     58  56  93 CALM      30.07S
IRONWOOD       CLOUDY    61  57  88 SW5       30.06R
$$

ABBREVIATIONS USED IN REMARKS
   TC - TEMPERATURE IN CELSIUS
  WCI - WIND CHILL INDEX
   HX - HEAT INDEX
  VSB - VISIBILITY





USA.gov is the U.S. government's official web portal to all federal, state and local government web resources and services.